| time (UTC) | temp F | wind direction | speed MPH | gust MPH | rain 1hr in | rain 24hr in | rain mn in | humidity % | barometer mb |
| 20260903121622 | 81 | 193 | 7.0 | 11.0 | 0.00 | 0.00 | 0.00 | 84 | 1015.1 |
| 20260903121115 | 81 | 216 | 7.0 | 11.0 | 0.00 | 0.00 | 0.00 | 84 | 1015.1 |
| 20260903120608 | 81 | 203 | 8.0 | 15.0 | 0.00 | 0.00 | 0.00 | 85 | 1015.1 |
| 20260903115637 | 81 | 224 | 8.0 | 11.0 | 0.00 | 0.00 | 0.00 | 85 | 1015.1 |
| 20260903115135 | 81 | 204 | 6.0 | 12.0 | 0.00 | 0.00 | 0.00 | 85 | 1015.1 |
| 20260903114627 | 81 | 197 | 8.0 | 12.0 | 0.00 | 0.00 | 0.00 | 85 | 1015.2 |
| 20260903114105 | 81 | 205 | 8.0 | 10.0 | 0.00 | 0.00 | 0.00 | 85 | 1015.1 |
| 20260903113552 | 81 | 195 | 7.0 | 10.0 | 0.00 | 0.00 | 0.00 | 85 | 1015.0 |
| 20260903113103 | 81 | 171 | 6.0 | 10.0 | 0.00 | 0.00 | 0.00 | 85 | 1015.0 |
| 20260903112609 | 81 | 189 | 8.0 | 10.0 | 0.00 | 0.00 | 0.00 | 85 | 1015.0 |
| 20260903112107 | 81 | 170 | 7.0 | 9.0 | 0.00 | 0.00 | 0.00 | 85 | 1015.0 |
| 20260903111602 | 81 | 207 | 7.0 | 10.0 | 0.00 | 0.00 | 0.00 | 85 | 1014.9 |
| 20260903111105 | 81 | 188 | 7.0 | 11.0 | 0.00 | 0.00 | 0.00 | 85 | 1015.0 |
| 20260903110040 | 81 | 186 | 8.0 | 12.0 | 0.00 | 0.00 | 0.00 | 85 | 1014.9 |
| 20260903105539 | 81 | 184 | 8.0 | 13.0 | 0.00 | 0.00 | 0.00 | 85 | 1014.8 |
| 20260903105103 | 81 | 188 | 8.0 | 13.0 | 0.00 | 0.00 | 0.00 | 85 | 1014.7 |
| 20260903104541 | 81 | 182 | 7.0 | 11.0 | 0.00 | 0.00 | 0.00 | 85 | 1014.7 |
| 20260903104145 | 81 | 207 | 9.0 | 11.0 | 0.00 | 0.00 | 0.00 | 86 | 1014.5 |
| 20260903103636 | 81 | 191 | 8.0 | 11.0 | 0.00 | 0.00 | 0.00 | 85 | 1014.5 |
| 20260903103046 | 81 | 180 | 7.0 | 13.0 | 0.00 | 0.00 | 0.00 | 85 | 1014.5 |
| 20260903102545 | 81 | 186 | 9.0 | 13.0 | 0.00 | 0.00 | 0.00 | 85 | 1014.5 |
| 20260903102147 | 81 | 176 | 8.0 | 13.0 | 0.00 | 0.00 | 0.00 | 85 | 1014.6 |
| 20260903101605 | 81 | 197 | 9.0 | 11.0 | 0.00 | 0.00 | 0.00 | 85 | 1014.6 |
| 20260903101103 | 81 | 190 | 8.0 | 11.0 | 0.00 | 0.00 | 0.00 | 85 | 1014.6 |
| 20260903100601 | 81 | 172 | 9.0 | 12.0 | 0.00 | 0.00 | 0.00 | 85 | 1014.7 |
| 20260903095549 | 81 | 172 | 10.0 | 14.0 | 0.00 | 0.00 | 0.00 | 85 | 1014.7 |
| 20260903095113 | 81 | 195 | 10.0 | 13.0 | 0.00 | 0.00 | 0.00 | 85 | 1014.7 |
| 20260903094620 | 81 | 170 | 8.0 | 15.0 | 0.00 | 0.00 | 0.00 | 85 | 1014.8 |
| 20260903093639 | 81 | 168 | 8.0 | 12.0 | 0.00 | 0.00 | 0.00 | 85 | 1014.7 |
| 20260903093102 | 81 | 188 | 9.0 | 11.0 | 0.00 | 0.00 | 0.00 | 85 | 1014.6 |
| 20260903092553 | 81 | 184 | 9.0 | 11.0 | 0.00 | 0.00 | 0.00 | 85 | 1014.8 |
| 20260903092051 | 81 | 197 | 8.0 | 11.0 | 0.00 | 0.00 | 0.00 | 85 | 1014.7 |
| 20260903091605 | 81 | 174 | 8.0 | 11.0 | 0.00 | 0.00 | 0.00 | 85 | 1014.8 |
| 20260903091116 | 81 | 187 | 7.0 | 11.0 | 0.00 | 0.00 | 0.00 | 85 | 1014.8 |
| 20260903090553 | 81 | 203 | 8.0 | 11.0 | 0.00 | 0.00 | 0.00 | 85 | 1014.8 |
| 20260903085615 | 81 | 168 | 6.0 | 11.0 | 0.00 | 0.00 | 0.00 | 85 | 1014.8 |
| 20260903085110 | 81 | 178 | 7.0 | 13.0 | 0.00 | 0.00 | 0.00 | 85 | 1014.9 |
| 20260903084607 | 81 | 157 | 8.0 | 13.0 | 0.00 | 0.00 | 0.00 | 85 | 1014.9 |
| 20260903084137 | 81 | 148 | 8.0 | 13.0 | 0.00 | 0.00 | 0.00 | 84 | 1014.9 |
| 20260903083633 | 82 | 166 | 8.0 | 13.0 | 0.00 | 0.00 | 0.00 | 85 | 1014.9 |
| 20260903083123 | 82 | 165 | 10.0 | 13.0 | 0.00 | 0.00 | 0.00 | 85 | 1015.0 |
| 20260903082617 | 82 | 180 | 8.0 | 13.0 | 0.00 | 0.00 | 0.00 | 84 | 1014.9 |
| 20260903082114 | 82 | 164 | 10.0 | 13.0 | 0.00 | 0.00 | 0.00 | 85 | 1015.0 |
| 20260903081603 | 82 | 163 | 10.0 | 13.0 | 0.00 | 0.00 | 0.00 | 84 | 1014.9 |
| 20260903081121 | 82 | 186 | 10.0 | 13.0 | 0.00 | 0.00 | 0.00 | 84 | 1015.0 |
| 20260903080620 | 82 | 184 | 9.0 | 15.0 | 0.00 | 0.00 | 0.00 | 84 | 1015.0 |
| 20260903080132 | 81 | 193 | 11.0 | 15.0 | 0.00 | 0.00 | 0.00 | 83 | 1014.9 |
| 20260903075633 | 82 | 177 | 8.0 | 13.0 | 0.00 | 0.00 | 0.00 | 83 | 1015.0 |
| 20260903075131 | 82 | 169 | 9.0 | 13.0 | 0.00 | 0.00 | 0.00 | 83 | 1014.9 |
| 20260903074539 | 82 | 172 | 9.0 | 14.0 | 0.00 | 0.00 | 0.00 | 83 | 1015.0 |
| 20260903074056 | 82 | 155 | 10.0 | 14.0 | 0.00 | 0.00 | 0.00 | 83 | 1015.1 |
| 20260903073614 | 82 | 181 | 9.0 | 12.0 | 0.00 | 0.00 | 0.00 | 83 | 1015.2 |
| 20260903072556 | 82 | 171 | 10.0 | 12.0 | 0.00 | 0.00 | 0.00 | 82 | 1015.0 |
| 20260903072118 | 82 | 178 | 11.0 | 14.0 | 0.00 | 0.00 | 0.00 | 82 | 1015.2 |
| 20260903071627 | 82 | 170 | 10.0 | 14.0 | 0.00 | 0.00 | 0.00 | 82 | 1015.2 |
| 20260903071044 | 82 | 157 | 9.0 | 12.0 | 0.00 | 0.00 | 0.00 | 82 | 1015.1 |
| 20260903070611 | 82 | 170 | 10.0 | 12.0 | 0.00 | 0.00 | 0.00 | 81 | 1015.2 |
| 20260903070054 | 82 | 168 | 8.0 | 12.0 | 0.00 | 0.00 | 0.00 | 81 | 1015.2 |
| 20260903065550 | 83 | 174 | 9.0 | 12.0 | 0.00 | 0.00 | 0.00 | 81 | 1015.2 |
| 20260903065046 | 83 | 179 | 9.0 | 18.0 | 0.00 | 0.00 | 0.00 | 81 | 1015.2 |
| 20260903064542 | 83 | 180 | 12.0 | 18.0 | 0.00 | 0.00 | 0.00 | 81 | 1015.2 |
| 20260903064041 | 83 | 152 | 12.0 | 19.0 | 0.00 | 0.00 | 0.00 | 80 | 1015.2 |
| 20260903063556 | 83 | 159 | 12.0 | 18.0 | 0.00 | 0.00 | 0.00 | 80 | 1015.2 |
| 20260903063048 | 83 | 165 | 14.0 | 18.0 | 0.00 | 0.00 | 0.00 | 80 | 1015.2 |
| 20260903062604 | 83 | 161 | 13.0 | 18.0 | 0.00 | 0.00 | 0.00 | 79 | 1015.2 |
| 20260903062038 | 83 | 171 | 15.0 | 18.0 | 0.00 | 0.00 | 0.00 | 80 | 1015.1 |
| 20260903061555 | 83 | 158 | 12.0 | 18.0 | 0.00 | 0.00 | 0.00 | 79 | 1015.2 |
| 20260903061050 | 83 | 159 | 13.0 | 16.0 | 0.00 | 0.00 | 0.00 | 79 | 1015.4 |
| 20260903060547 | 83 | 142 | 12.0 | 20.0 | 0.00 | 0.00 | 0.00 | 79 | 1015.5 |
| 20260903060041 | 83 | 145 | 15.0 | 20.0 | 0.00 | 0.00 | 0.00 | 77 | 1015.3 |
| 20260903055557 | 84 | 145 | 15.0 | 21.0 | 0.00 | 0.00 | 0.00 | 77 | 1015.2 |
| 20260903055052 | 84 | 151 | 15.0 | 21.0 | 0.00 | 0.00 | 0.00 | 76 | 1015.3 |
| 20260903054548 | 84 | 143 | 15.0 | 20.0 | 0.00 | 0.00 | 0.00 | 76 | 1015.4 |
| 20260903054041 | 84 | 149 | 16.0 | 21.0 | 0.00 | 0.00 | 0.00 | 77 | 1015.2 |
| 20260903053556 | 84 | 158 | 15.0 | 21.0 | 0.00 | 0.00 | 0.00 | 76 | 1015.1 |
| 20260903053050 | 85 | 154 | 16.0 | 19.0 | 0.00 | 0.00 | 0.00 | 74 | 1015.3 |
| 20260903052546 | 85 | 155 | 15.0 | 19.0 | 0.00 | 0.00 | 0.00 | 73 | 1015.2 |
| 20260903052040 | 85 | 150 | 16.0 | 22.0 | 0.00 | 0.00 | 0.00 | 73 | 1015.1 |
| 20260903051556 | 85 | 145 | 17.0 | 22.0 | 0.00 | 0.00 | 0.00 | 73 | 1015.1 |
| 20260903051051 | 85 | 153 | 17.0 | 22.0 | 0.00 | 0.00 | 0.00 | 72 | 1015.1 |
| 20260903050547 | 86 | 152 | 16.0 | 22.0 | 0.00 | 0.00 | 0.00 | 70 | 1015.1 |
| 20260903050044 | 86 | 145 | 15.0 | 22.0 | 0.00 | 0.00 | 0.00 | 71 | 1015.0 |
| 20260903045546 | 86 | 140 | 15.0 | 19.0 | 0.00 | 0.00 | 0.00 | 70 | 1014.9 |
| 20260903045050 | 86 | 151 | 16.0 | 21.0 | 0.00 | 0.00 | 0.00 | 70 | 1014.9 |
| 20260903044543 | 86 | 141 | 16.0 | 20.0 | 0.00 | 0.00 | 0.00 | 70 | 1014.9 |
| 20260903044046 | 87 | 140 | 16.0 | 20.0 | 0.00 | 0.00 | 0.00 | 68 | 1014.9 |
| 20260903043539 | 87 | 151 | 17.0 | 20.0 | 0.00 | 0.00 | 0.00 | 69 | 1014.7 |
| 20260903043154 | 87 | 155 | 14.0 | 24.0 | 0.00 | 0.00 | 0.00 | 66 | 1014.7 |
| 20260903042547 | 88 | 171 | 19.0 | 24.0 | 0.00 | 0.00 | 0.00 | 66 | 1014.6 |
| 20260903042101 | 88 | 157 | 17.0 | 21.0 | 0.00 | 0.00 | 0.00 | 66 | 1014.6 |
| 20260903041553 | 88 | 155 | 15.0 | 22.0 | 0.00 | 0.00 | 0.00 | 66 | 1014.6 |
| 20260903041108 | 88 | 178 | 17.0 | 22.0 | 0.00 | 0.00 | 0.00 | 65 | 1014.5 |
| 20260903040055 | 89 | 158 | 16.0 | 22.0 | 0.00 | 0.00 | 0.00 | 64 | 1014.5 |
| 20260903035600 | 89 | 156 | 15.0 | 22.0 | 0.00 | 0.00 | 0.00 | 65 | 1014.4 |
| 20260903035118 | 89 | 169 | 15.0 | 21.0 | 0.00 | 0.00 | 0.00 | 64 | 1014.4 |
| 20260903034631 | 90 | 159 | 14.0 | 18.0 | 0.00 | 0.00 | 0.00 | 64 | 1014.4 |
| 20260903034133 | 90 | 165 | 10.0 | 16.0 | 0.00 | 0.00 | 0.00 | 64 | 1014.5 |
| 20260903033631 | 90 | 166 | 12.0 | 16.0 | 0.00 | 0.00 | 0.00 | 64 | 1014.4 |
| 20260903033119 | 90 | 158 | 10.0 | 14.0 | 0.00 | 0.00 | 0.00 | 60 | 1014.2 |
| 20260903032612 | 90 | 165 | 11.0 | 15.0 | 0.00 | 0.00 | 0.00 | 61 | 1014.0 |
| 20260903032111 | 90 | 141 | 11.0 | 15.0 | 0.00 | 0.00 | 0.00 | 56 | 1014.0 |
| 20260903031620 | 90 | 122 | 9.0 | 13.0 | 0.00 | 0.00 | 0.00 | 57 | 1013.8 |
| 20260903031119 | 90 | 112 | 8.0 | 10.0 | 0.00 | 0.00 | 0.00 | 58 | 1013.6 |
| 20260903030631 | 90 | 102 | 7.0 | 8.0 | 0.00 | 0.00 | 0.00 | 56 | 1013.7 |
| 20260903030131 | 90 | 102 | 7.0 | 8.0 | 0.00 | 0.00 | 0.00 | 56 | 1013.3 |
| 20260903025611 | 90 | 105 | 7.0 | 8.0 | 0.00 | 0.00 | 0.00 | 56 | 1013.5 |
| 20260903025110 | 91 | 101 | 7.0 | 8.0 | 0.00 | 0.00 | 0.00 | 56 | 1013.5 |
| 20260903024139 | 91 | 105 | 6.0 | 8.0 | 0.00 | 0.00 | 0.00 | 55 | 1013.3 |
| 20260903023611 | 91 | 113 | 6.0 | 8.0 | 0.00 | 0.00 | 0.00 | 56 | 1013.2 |
| 20260903023054 | 91 | 100 | 7.0 | 8.0 | 0.00 | 0.00 | 0.00 | 55 | 1013.1 |
| 20260903022552 | 92 | 102 | 6.0 | 8.0 | 0.00 | 0.00 | 0.00 | 51 | 1013.2 |
| 20260903022047 | 92 | 99 | 6.0 | 8.0 | 0.00 | 0.00 | 0.00 | 52 | 1013.1 |
| 20260903021600 | 92 | 90 | 5.0 | 8.0 | 0.00 | 0.00 | 0.00 | 51 | 1013.0 |
| 20260903021108 | 92 | 93 | 6.0 | 9.0 | 0.00 | 0.00 | 0.00 | 49 | 1012.9 |
| 20260903020607 | 92 | 93 | 7.0 | 9.0 | 0.00 | 0.00 | 0.00 | 50 | 1012.8 |
| 20260903020046 | 92 | 100 | 3.0 | 6.0 | 0.00 | 0.00 | 0.00 | 52 | 1012.8 |
| 20260903015557 | 93 | 178 | 0.0 | 1.0 | 0.00 | 0.00 | 0.00 | 53 | 1012.6 |
| 20260903015042 | 93 | 178 | 0.0 | 0.0 | 0.00 | 0.00 | 0.00 | 54 | 1012.7 |
| 20260903014555 | 93 | 178 | 0.0 | 0.0 | 0.00 | 0.00 | 0.00 | 52 | 1012.6 |
| 20260903014054 | 93 | 178 | 0.0 | 2.0 | 0.00 | 0.00 | 0.00 | 54 | 1012.5 |
| 20260903013553 | 93 | 178 | 0.0 | 2.0 | 0.00 | 0.00 | 0.00 | 54 | 1012.6 |
| 20260903013051 | 92 | 178 | 0.0 | 1.0 | 0.00 | 0.00 | 0.00 | 54 | 1012.6 |
| 20260903012555 | 92 | 179 | 0.0 | 1.0 | 0.00 | 0.00 | 0.00 | 55 | 1012.6 |
| 20260903012154 | 92 | 179 | 0.0 | 2.0 | 0.00 | 0.00 | 0.00 | 56 | 1012.5 |
| 20260903011628 | 93 | 179 | 1.0 | 2.0 | 0.00 | 0.00 | 0.00 | 62 | 1012.6 |
| 20260903011120 | 93 | 179 | 0.0 | 1.0 | 0.00 | 0.00 | 0.00 | 63 | 1012.5 |
| 20260903010618 | 93 | 179 | 0.0 | 1.0 | 0.00 | 0.00 | 0.00 | 62 | 1012.5 |
| 20260903010051 | 94 | 179 | 0.0 | 2.0 | 0.00 | 0.00 | 0.00 | 61 | 1012.3 |
| 20260903005551 | 93 | 179 | 1.0 | 4.0 | 0.00 | 0.00 | 0.00 | 58 | 1012.4 |
| 20260903005049 | 94 | 182 | 2.0 | 5.0 | 0.00 | 0.00 | 0.00 | 58 | 1012.4 |
| 20260903004557 | 94 | 190 | 4.0 | 5.0 | 0.00 | 0.00 | 0.00 | 59 | 1012.4 |
| 20260903004055 | 94 | 186 | 4.0 | 5.0 | 0.00 | 0.00 | 0.00 | 57 | 1012.4 |
| 20260903003552 | 94 | 188 | 4.0 | 6.0 | 0.00 | 0.00 | 0.00 | 57 | 1012.5 |
| 20260903003054 | 95 | 184 | 4.0 | 7.0 | 0.00 | 0.00 | 0.00 | 56 | 1012.4 |
| 20260903002547 | 95 | 185 | 6.0 | 7.0 | 0.00 | 0.00 | 0.00 | 55 | 1012.4 |
| 20260903002049 | 95 | 188 | 6.0 | 7.0 | 0.00 | 0.00 | 0.00 | 52 | 1012.3 |
| 20260903001547 | 95 | 176 | 6.0 | 7.0 | 0.00 | 0.00 | 0.00 | 50 | 1012.3 |
| 20260903001051 | 95 | 182 | 6.0 | 7.0 | 0.00 | 0.00 | 0.00 | 53 | 1012.5 |
| 20260903000544 | 95 | 161 | 5.0 | 8.0 | 0.00 | 0.00 | 0.00 | 55 | 1012.6 |
| 20260903000043 | 95 | 170 | 6.0 | 8.0 | 0.00 | 0.00 | 0.00 | 55 | 1012.5 |
| 20260902235656 | 96 | 168 | 6.0 | 8.0 | 0.00 | 0.00 | 0.00 | 54 | 1012.5 |
| 20260902235134 | 96 | 185 | 5.0 | 6.0 | 0.00 | 0.00 | 0.00 | 50 | 1012.6 |
| 20260902234543 | 96 | 180 | 4.0 | 6.0 | 0.00 | 0.00 | 0.00 | 45 | 1012.5 |
| 20260902234108 | 97 | 184 | 3.0 | 6.0 | 0.00 | 0.00 | 0.00 | 47 | 1012.6 |
| 20260902233622 | 97 | 193 | 2.0 | 6.0 | 0.00 | 0.00 | 0.00 | 47 | 1012.5 |
| 20260902233041 | 97 | 194 | 2.0 | 5.0 | 0.00 | 0.00 | 0.00 | 41 | 1012.6 |
| 20260902232556 | 97 | 197 | 2.0 | 9.0 | 0.00 | 0.00 | 0.00 | 41 | 1012.6 |
| 20260902232114 | 97 | 203 | 6.0 | 10.0 | 0.00 | 0.00 | 0.00 | 40 | 1012.6 |
| 20260902231611 | 96 | 208 | 7.0 | 11.0 | 0.00 | 0.00 | 0.00 | 43 | 1012.6 |
| 20260902230636 | 96 | 157 | 6.0 | 11.0 | 0.00 | 0.00 | 0.00 | 46 | 1012.6 |
| 20260902230045 | 96 | 163 | 7.0 | 10.0 | 0.00 | 0.00 | 0.00 | 52 | 1012.6 |
| 20260902225543 | 96 | 159 | 6.0 | 8.0 | 0.00 | 0.00 | 0.00 | 51 | 1012.5 |
| 20260902225102 | 96 | 191 | 5.0 | 7.0 | 0.00 | 0.00 | 0.00 | 47 | 1012.4 |
| 20260902224621 | 96 | 157 | 2.0 | 7.0 | 0.00 | 0.00 | 0.00 | 49 | 1012.5 |
| 20260902224114 | 96 | 164 | 5.0 | 10.0 | 0.00 | 0.00 | 0.00 | 45 | 1012.4 |
| 20260902223613 | 97 | 172 | 6.0 | 10.0 | 0.00 | 0.00 | 0.00 | 49 | 1012.5 |
| 20260902222548 | 96 | 136 | 4.0 | 6.0 | 0.00 | 0.00 | 0.00 | 43 | 1012.7 |
| 20260902222052 | 96 | 172 | 1.0 | 9.0 | 0.00 | 0.00 | 0.00 | 43 | 1012.6 |
| 20260902221601 | 96 | 178 | 5.0 | 9.0 | 0.00 | 0.00 | 0.00 | 44 | 1012.6 |
| 20260902221125 | 96 | 205 | 6.0 | 8.0 | 0.00 | 0.00 | 0.00 | 44 | 1012.7 |
| 20260902220605 | 96 | 182 | 3.0 | 9.0 | 0.00 | 0.00 | 0.00 | 44 | 1012.7 |
| 20260902220044 | 97 | 178 | 7.0 | 9.0 | 0.00 | 0.00 | 0.00 | 44 | 1012.6 |
| 20260902215558 | 96 | 236 | 7.0 | 9.0 | 0.00 | 0.00 | 0.00 | 44 | 1012.7 |
| 20260902215046 | 96 | 161 | 2.0 | 10.0 | 0.00 | 0.00 | 0.00 | 44 | 1012.9 |
| 20260902214656 | 96 | 214 | 5.0 | 10.0 | 0.00 | 0.00 | 0.00 | 43 | 1012.9 |
| 20260902214129 | 96 | 180 | 1.0 | 4.0 | 0.00 | 0.00 | 0.00 | 45 | 1013.0 |
| 20260902213541 | 96 | 180 | 1.0 | 4.0 | 0.00 | 0.00 | 0.00 | 44 | 1013.1 |
| 20260902213045 | 96 | 178 | 1.0 | 4.0 | 0.00 | 0.00 | 0.00 | 43 | 1013.1 |
| 20260902212603 | 96 | 176 | 0.0 | 4.0 | 0.00 | 0.00 | 0.00 | 46 | 1013.1 |
| 20260902211635 | 96 | 180 | 0.0 | 5.0 | 0.00 | 0.00 | 0.00 | 43 | 1013.1 |
| 20260902211107 | 97 | 180 | 2.0 | 5.0 | 0.00 | 0.00 | 0.00 | 44 | 1013.1 |
| 20260902210605 | 97 | 247 | 0.0 | 1.0 | 0.00 | 0.00 | 0.00 | 43 | 1013.2 |
| 20260902205546 | 97 | 253 | 0.0 | 5.0 | 0.00 | 0.00 | 0.00 | 46 | 1013.3 |
| 20260902205049 | 96 | 88 | 1.0 | 7.0 | 0.00 | 0.00 | 0.00 | 45 | 1013.3 |
| 20260902204601 | 96 | 93 | 1.0 | 6.0 | 0.00 | 0.00 | 0.00 | 46 | 1013.3 |
| 20260902204108 | 96 | 159 | 0.0 | 4.0 | 0.00 | 0.00 | 0.00 | 48 | 1013.5 |
| 20260902203049 | 96 | 165 | 0.0 | 5.0 | 0.00 | 0.00 | 0.00 | 46 | 1013.8 |
| 20260902202547 | 96 | 165 | 1.0 | 5.0 | 0.00 | 0.00 | 0.00 | 46 | 1013.9 |
| 20260902202130 | 96 | 176 | 1.0 | 4.0 | 0.00 | 0.00 | 0.00 | 46 | 1013.9 |
| 20260902201629 | 96 | 251 | 0.0 | 0.0 | 0.00 | 0.00 | 0.00 | 47 | 1013.9 |
| 20260902201127 | 95 | 251 | 0.0 | 1.0 | 0.00 | 0.00 | 0.00 | 49 | 1013.9 |
| 20260902200612 | 96 | 251 | 0.0 | 2.0 | 0.00 | 0.00 | 0.00 | 48 | 1014.0 |
| 20260902200109 | 96 | 255 | 0.0 | 2.0 | 0.00 | 0.00 | 0.00 | 47 | 1014.2 |
| 20260902195132 | 95 | 251 | 0.0 | 1.0 | 0.00 | 0.00 | 0.00 | 49 | 1014.5 |
| 20260902194137 | 95 | 251 | 0.0 | 4.0 | 0.00 | 0.00 | 0.00 | 49 | 1014.6 |
| 20260902193613 | 95 | 251 | 0.0 | 4.0 | 0.00 | 0.00 | 0.00 | 49 | 1014.7 |
| 20260902193123 | 95 | 211 | 0.0 | 1.0 | 0.00 | 0.00 | 0.00 | 48 | 1014.8 |
| 20260902192600 | 95 | 168 | 0.0 | 1.0 | 0.00 | 0.00 | 0.00 | 49 | 1014.8 |
| 20260902192044 | 94 | 168 | 0.0 | 0.0 | 0.00 | 0.00 | 0.00 | 49 | 1014.9 |
| 20260902191558 | 94 | 168 | 0.0 | 0.0 | 0.00 | 0.00 | 0.00 | 50 | 1015.0 |
| 20260902191102 | 94 | 168 | 0.0 | 0.0 | 0.00 | 0.00 | 0.00 | 51 | 1015.1 |
| 20260902190616 | 94 | 168 | 0.0 | 2.0 | 0.00 | 0.00 | 0.00 | 51 | 1015.2 |
| 20260902190128 | 94 | 168 | 0.0 | 2.0 | 0.00 | 0.00 | 0.00 | 52 | 1015.3 |
| 20260902185625 | 94 | 168 | 0.0 | 1.0 | 0.00 | 0.00 | 0.00 | 53 | 1015.3 |
| 20260902185124 | 93 | 168 | 0.0 | 1.0 | 0.00 | 0.00 | 0.00 | 53 | 1015.4 |
| 20260902184636 | 93 | 163 | 0.0 | 2.0 | 0.00 | 0.00 | 0.00 | 55 | 1015.7 |
| 20260902184129 | 92 | 163 | 0.0 | 4.0 | 0.00 | 0.00 | 0.00 | 55 | 1015.6 |
| 20260902183627 | 92 | 163 | 0.0 | 4.0 | 0.00 | 0.00 | 0.00 | 55 | 1015.8 |
| 20260902182545 | 92 | 163 | 1.0 | 4.0 | 0.00 | 0.00 | 0.00 | 57 | 1015.7 |
| 20260902182104 | 92 | 82 | 0.0 | 0.0 | 0.00 | 0.00 | 0.00 | 56 | 1015.8 |
| 20260902181603 | 92 | 82 | 0.0 | 1.0 | 0.00 | 0.00 | 0.00 | 57 | 1016.1 |
| 20260902181115 | 92 | 82 | 0.0 | 5.0 | 0.00 | 0.00 | 0.00 | 56 | 1016.1 |
| 20260902180614 | 91 | 81 | 1.0 | 5.0 | 0.00 | 0.00 | 0.00 | 56 | 1016.1 |
| 20260902180113 | 91 | 111 | 0.0 | 1.0 | 0.00 | 0.00 | 0.00 | 58 | 1016.1 |
| 20260902175049 | 91 | 205 | 0.0 | 0.0 | 0.00 | 0.00 | 0.00 | 60 | 1016.4 |
| 20260902174557 | 90 | 205 | 0.0 | 5.0 | 0.00 | 0.00 | 0.00 | 61 | 1016.4 |
| 20260902174112 | 90 | 205 | 2.0 | 5.0 | 0.00 | 0.00 | 0.00 | 60 | 1016.4 |
| 20260902173611 | 90 | 273 | 0.0 | 4.0 | 0.00 | 0.00 | 0.00 | 62 | 1016.7 |
| 20260902173123 | 90 | 273 | 0.0 | 4.0 | 0.00 | 0.00 | 0.00 | 62 | 1016.7 |
| 20260902172554 | 90 | 281 | 0.0 | 0.0 | 0.00 | 0.00 | 0.00 | 63 | 1016.7 |
| 20260902172101 | 89 | 281 | 0.0 | 0.0 | 0.00 | 0.00 | 0.00 | 63 | 1016.7 |
| 20260902171113 | 89 | 281 | 0.0 | 2.0 | 0.00 | 0.00 | 0.00 | 64 | 1016.8 |
| 20260902170633 | 89 | 281 | 0.0 | 2.0 | 0.00 | 0.00 | 0.00 | 65 | 1016.9 |
| 20260902170126 | 89 | 282 | 0.0 | 0.0 | 0.00 | 0.00 | 0.00 | 66 | 1016.9 |
| 20260902165624 | 88 | 283 | 0.0 | 1.0 | 0.00 | 0.00 | 0.00 | 67 | 1017.0 |
| 20260902165128 | 88 | 282 | 0.0 | 1.0 | 0.00 | 0.00 | 0.00 | 67 | 1017.0 |
| 20260902164634 | 88 | 284 | 0.0 | 2.0 | 0.00 | 0.00 | 0.00 | 67 | 1017.2 |
| 20260902164126 | 87 | 284 | 0.0 | 2.0 | 0.00 | 0.00 | 0.00 | 68 | 1017.2 |
| 20260902163625 | 87 | 283 | 0.0 | 1.0 | 0.00 | 0.00 | 0.00 | 68 | 1017.1 |
| 20260902163119 | 87 | 283 | 0.0 | 2.0 | 0.00 | 0.00 | 0.00 | 69 | 1017.1 |
| 20260902162618 | 87 | 282 | 0.0 | 2.0 | 0.00 | 0.00 | 0.00 | 69 | 1017.1 |
| 20260902162115 | 87 | 178 | 0.0 | 0.0 | 0.00 | 0.00 | 0.00 | 71 | 1017.3 |
| 20260902161608 | 86 | 179 | 0.0 | 2.0 | 0.00 | 0.00 | 0.00 | 71 | 1017.2 |
| 20260902161107 | 86 | 179 | 1.0 | 2.0 | 0.00 | 0.00 | 0.00 | 71 | 1017.3 |
| 20260902160606 | 86 | 179 | 1.0 | 2.0 | 0.00 | 0.00 | 0.00 | 72 | 1017.4 |
| 20260902160106 | 86 | 214 | 0.0 | 2.0 | 0.00 | 0.00 | 0.00 | 73 | 1017.3 |
| 20260902155134 | 85 | 261 | 0.0 | 2.0 | 0.00 | 0.00 | 0.00 | 74 | 1017.3 |
| 20260902154627 | 85 | 261 | 0.0 | 4.0 | 0.00 | 0.00 | 0.00 | 74 | 1017.3 |
| 20260902154124 | 85 | 261 | 2.0 | 5.0 | 0.00 | 0.00 | 0.00 | 75 | 1017.2 |
| 20260902153617 | 85 | 261 | 1.0 | 7.0 | 0.00 | 0.00 | 0.00 | 75 | 1017.2 |
| 20260902153109 | 85 | 268 | 6.0 | 9.0 | 0.00 | 0.00 | 0.00 | 75 | 1017.2 |
| 20260902152603 | 84 | 265 | 5.0 | 9.0 | 0.00 | 0.00 | 0.00 | 76 | 1017.1 |
| 20260902152101 | 84 | 251 | 5.0 | 8.0 | 0.00 | 0.00 | 0.00 | 77 | 1017.2 |
| 20260902151132 | 84 | 282 | 6.0 | 9.0 | 0.00 | 0.00 | 0.00 | 78 | 1017.4 |
| 20260902150635 | 83 | 261 | 7.0 | 9.0 | 0.00 | 0.00 | 0.00 | 79 | 1017.2 |
| 20260902150129 | 83 | 276 | 5.0 | 7.0 | 0.00 | 0.00 | 0.00 | 81 | 1017.4 |
| 20260902145633 | 82 | 265 | 5.0 | 7.0 | 0.00 | 0.00 | 0.00 | 82 | 1017.3 |
| 20260902145125 | 82 | 300 | 3.0 | 7.0 | 0.00 | 0.00 | 0.00 | 82 | 1017.4 |
| 20260902144625 | 82 | 293 | 5.0 | 9.0 | 0.00 | 0.00 | 0.00 | 82 | 1017.3 |
| 20260902143634 | 81 | 265 | 4.0 | 9.0 | 0.00 | 0.00 | 0.00 | 83 | 1017.3 |
| 20260902143126 | 81 | 285 | 0.0 | 1.0 | 0.00 | 0.00 | 0.00 | 84 | 1017.4 |
| 20260902142559 | 81 | 285 | 0.0 | 1.0 | 0.00 | 0.00 | 0.00 | 84 | 1017.4 |
| 20260902142153 | 80 | 285 | 0.0 | 1.0 | 0.00 | 0.00 | 0.00 | 84 | 1017.3 |
| 20260902141540 | 80 | 286 | 0.0 | 1.0 | 0.00 | 0.00 | 0.00 | 84 | 1017.4 |
| 20260902141044 | 80 | 286 | 0.0 | 4.0 | 0.00 | 0.00 | 0.00 | 84 | 1017.5 |
| 20260902140540 | 80 | 286 | 1.0 | 4.0 | 0.00 | 0.00 | 0.00 | 84 | 1017.5 |
| 20260902140154 | 80 | 251 | 0.0 | 4.0 | 0.00 | 0.00 | 0.00 | 84 | 1017.5 |
| 20260902135537 | 80 | 251 | 1.0 | 4.0 | 0.00 | 0.00 | 0.00 | 84 | 1017.5 |
| 20260902135102 | 80 | 251 | 1.0 | 4.0 | 0.00 | 0.00 | 0.00 | 84 | 1017.3 |
| 20260902134603 | 79 | 249 | 1.0 | 5.0 | 0.00 | 0.00 | 0.00 | 84 | 1017.4 |
| 20260902134102 | 79 | 251 | 1.0 | 5.0 | 0.00 | 0.00 | 0.00 | 84 | 1017.3 |
| 20260902133602 | 79 | 244 | 2.0 | 5.0 | 0.00 | 0.00 | 0.00 | 84 | 1017.4 |
| 20260902133115 | 79 | 209 | 2.0 | 6.0 | 0.00 | 0.00 | 0.00 | 83 | 1017.2 |
| 20260902132053 | 79 | 253 | 2.0 | 6.0 | 0.00 | 0.00 | 0.00 | 83 | 1017.2 |
| 20260902131607 | 79 | 254 | 2.0 | 6.0 | 0.00 | 0.00 | 0.00 | 83 | 1017.1 |
| 20260902130544 | 79 | 262 | 1.0 | 5.0 | 0.00 | 0.00 | 0.00 | 83 | 1017.0 |
| 20260902130103 | 79 | 229 | 1.0 | 5.0 | 0.00 | 0.00 | 0.00 | 83 | 1017.0 |
| 20260902125602 | 79 | 241 | 1.0 | 5.0 | 0.00 | 0.00 | 0.00 | 83 | 1017.0 |
| 20260902125101 | 79 | 234 | 3.0 | 6.0 | 0.00 | 0.00 | 0.00 | 82 | 1016.9 |
| 20260902124135 | 79 | 249 | 3.0 | 6.0 | 0.00 | 0.00 | 0.00 | 82 | 1016.7 |
| 20260902123634 | 79 | 244 | 4.0 | 7.0 | 0.00 | 0.00 | 0.00 | 82 | 1016.6 |
| 20260902123045 | 79 | 224 | 5.0 | 7.0 | 0.00 | 0.00 | 0.00 | 82 | 1016.7 |
| 20260902122554 | 79 | 236 | 4.0 | 6.0 | 0.00 | 0.00 | 0.00 | 82 | 1016.6 |
| 20260902122109 | 79 | 210 | 4.0 | 7.0 | 0.00 | 0.00 | 0.00 | 82 | 1016.6 |